OK,73,38,1016,73,2014-10-01T01:40:00,0,28072786,185343
OK,73,38,1016,73,2014-10-01T01:45:00,0,28073233,185343
OK,73,38,1016,73,2014-10-01T01:50:00,0,28073681,185343
OK,73,38,1016,73,2014-10-01T01:55:00,0,28073999,185343
OK,73,38,1016,73,2014-10-01T02:05:00,0,28074888,185343
OK,73,38,1016,73,2014-10-01T02:10:00,0,28075337,185343
OK,73,38,1016,73,2014-10-01T02:15:00,0,28075786,185343
OK,73,38,1016,73,2014-10-01T02:20:00,0,28076169,185343
OK,73,38,1016,73,2014-10-01T02:25:00,0,28076618,185343
OK,73,38,1016,73,2014-10-01T02:30:00,0,28077067,185343
OK,73,38,1016,73,2014-10-01T02:35:00,0,28077516,185343
OK,73,38,1016,73,2014-10-01T02:40:00,0,28077919,185343
OK,73,38,1016,73,2014-10-01T02:45:00,0,28078368,185343
OK,73,38,1016,73,2014-10-01T02:50:00,0,28078813,185343
OK,73,38,1016,73,2014-10-01T02:55:00,0,28079262,185343
OK,73,38,1016,73,2014-10-01T03:00:00,0,28079704,185343
OK,73,38,1016,73,2014-10-01T03:05:00,0,28080153,185343
OK,73,38,1016,73,2014-10-01T03:10:00,0,28080487,185343
OK,73,38,1016,73,2014-10-01T03:15:00,0,28080936,185343
OK,73,38,1016,73,2014-10-01T03:20:00,0,28081385,185343
OK,73,38,1016,73,2014-10-01T03:25:00,0,28081832,185343
OK,73,38,1016,73,2014-10-01T03:30:00,0,28082281,185343
OK,97,28,1016,97,2014-10-01T03:35:00,0,28082714,185343
OK,97,28,1016,97,2014-10-01T03:40:00,0,28083146,185343
OK,97,28,1016,97,2014-10-01T03:45:00,0,28083595,185343
OK,97,28,1016,97,2014-10-01T03:50:00,0,28084044,185343
OK,99,28,1016,99,2014-10-01T03:55:00,3,28084485,185343
OK,99,28,1016,99,2014-10-01T04:00:00,0,28084910,185343
OK,99,28,1016,99,2014-10-01T04:05:00,0,28085359,185343
OK,99,28,1016,99,2014-10-01T04:10:00,0,28085804,185343
OK,99,28,1016,99,2014-10-01T04:15:00,0,28086253,185343
OK,99,28,1016,99,2014-10-01T04:20:00,0,28086695,185343
OK,99,28,1016,99,2014-10-01T04:25:00,0,28087144,185343
OK,99,28,1016,99,2014-10-01T04:30:00,0,28087589,185343
OK,99,28,1016,99,2014-10-01T04:35:00,0,28088038,185343
OK,151,18,1016,151,2014-10-01T04:40:00,1,28088462,185343
OK,148,18,1016,148,2014-10-01T04:45:00,3,28088911,185343
OK,148,18,1016,148,2014-10-01T04:50:00,3,28089341,185343
OK,148,18,1016,148,2014-10-01T04:55:00,0,28089790,185343
OK,60,46,1016,60,2014-10-01T05:00:00,2,28090239,185343
OK,62,45,1016,62,2014-10-01T05:05:00,3,28090583,185343
OK,129,21,1016,129,2014-10-01T05:10:00,1,28091032,185343
OK,129,21,1016,129,2014-10-01T05:15:00,0,28091481,185343
OK,129,21,1016,129,2014-10-01T05:20:00,0,28091898,185343
OK,74,37,1016,74,2014-10-01T05:25:00,1,28092347,185343
OK,74,37,1016,74,2014-10-01T05:30:00,0,28092791,185343
OK,74,37,1016,74,2014-10-01T05:35:00,0,28093232,185343
OK,74,37,1016,74,2014-10-01T05:40:00,0,28093663,185343
OK,122,23,1016,122,2014-10-01T05:45:00,2,28094112,185343
OK,127,22,1016,127,2014-10-01T05:50:00,3,28094523,185343
OK,128,21,1016,128,2014-10-01T05:55:00,1,28094968,185343
OK,128,21,1016,128,2014-10-01T06:00:00,0,28095415,185343
OK,135,20,1016,135,2014-10-01T06:05:00,2,28095864,185343
OK,135,20,1016,135,2014-10-01T06:10:00,3,28096277,185343
OK,113,24,1016,113,2014-10-01T06:15:00,2,28096726,185343
OK,82,34,1016,82,2014-10-01T06:20:00,2,28097160,185343
OK,77,36,1016,77,2014-10-01T06:25:00,1,28097609,185343
OK,77,36,1016,77,2014-10-01T06:30:00,0,28098058,185343
OK,149,18,1016,149,2014-10-01T06:35:00,1,28098495,185343
OK,149,18,1016,149,2014-10-01T06:40:00,1,28098939,185343
OK,66,42,1016,66,2014-10-01T06:45:00,1,28099387,185343
OK,66,42,1016,66,2014-10-01T06:50:00,2,28099730,185343
OK,66,42,1016,66,2014-10-01T06:55:00,1,28100179,185343
OK,94,29,1016,94,2014-10-01T07:00:00,2,28100486,185343
OK,135,20,1016,135,2014-10-01T07:10:00,0,28101306,185343
OK,155,18,1016,155,2014-10-01T07:15:00,1,28101755,185343
OK,114,24,1016,114,2014-10-01T07:20:00,2,28102191,185343
OK,74,37,1016,74,2014-10-01T07:25:00,1,28102640,185343
OK,52,54,1016,52,2014-10-01T07:30:00,1,28103068,185343
OK,105,26,1016,105,2014-10-01T07:35:00,2,28103514,185343
OK,155,18,1016,155,2014-10-01T07:40:00,3,28103959,185343
OK,96,29,1016,96,2014-10-01T07:45:00,3,28104404,185343
OK,75,37,1016,75,2014-10-01T07:50:00,1,28104845,185343
OK,75,37,1016,75,2014-10-01T07:55:00,0,28105290,185343
OK,75,37,1016,75,2014-10-01T08:00:00,0,28105730,185343
OK,113,24,1016,113,2014-10-01T08:05:00,1,28106179,185343
OK,113,24,1016,113,2014-10-01T08:10:00,1,28106616,185343
OK,113,24,1016,113,2014-10-01T08:15:00,0,28107022,185343
OK,113,24,1016,113,2014-10-01T08:20:00,0,28107454,185343
OK,113,24,1016,113,2014-10-01T08:25:00,0,28107903,185343
OK,113,24,1016,113,2014-10-01T08:30:00,0,28108342,185343
OK,113,24,1016,113,2014-10-01T08:35:00,0,28108791,185343
OK,113,24,1016,113,2014-10-01T08:40:00,0,28109219,185343
OK,113,24,1016,113,2014-10-01T08:45:00,0,28109668,185343
OK,140,20,1016,140,2014-10-01T08:50:00,1,28110011,185343
OK,148,18,1016,148,2014-10-01T08:55:00,2,28110460,185343
OK,156,18,1016,156,2014-10-01T09:00:00,1,28110883,185343
OK,47,59,1016,47,2014-10-01T09:05:00,1,28111332,185343
OK,48,58,1016,48,2014-10-01T09:10:00,2,28111761,185343
OK,150,18,1016,150,2014-10-01T09:15:00,3,28112210,185343
OK,152,18,1016,152,2014-10-01T09:20:00,2,28112551,185343
OK,152,18,1016,152,2014-10-01T09:25:00,0,28113000,185343
OK,144,19,1016,144,2014-10-01T09:30:00,2,28113424,185343
OK,144,19,1016,144,2014-10-01T09:35:00,2,28113873,185343
OK,144,19,1016,144,2014-10-01T09:40:00,0,28114305,185343
OK,144,19,1016,144,2014-10-01T09:45:00,0,28114754,185343
OK,122,23,1016,122,2014-10-01T09:50:00,2,28115108,185343
OK,132,21,1016,132,2014-10-01T10:00:00,1,28115969,185343
OK,130,21,1016,130,2014-10-01T10:05:00,2,28116418,185343
OK,120,23,1016,120,2014-10-01T10:10:00,2,28116826,185343
OK,134,20,1016,134,2014-10-01T10:15:00,3,28117275,185343
OK,138,20,1016,138,2014-10-01T10:20:00,2,28117700,185343
OK,127,22,1016,127,2014-10-01T10:25:00,1,28118149,185343
OK,127,22,1016,127,2014-10-01T10:30:00,1,28118594,185343
OK,51,55,1016,51,2014-10-01T10:35:00,1,28119041,185343
OK,51,55,1016,51,2014-10-01T10:40:00,1,28119485,185343
OK,51,55,1016,51,2014-10-01T10:45:00,2,28119933,185343
OK,51,55,1016,51,2014-10-01T10:50:00,2,28120381,185343
OK,144,19,1016,144,2014-10-01T10:55:00,1,28120830,185343
OK,101,27,1016,101,2014-10-01T11:00:00,2,28121213,185343
OK,59,47,1016,59,2014-10-01T11:05:00,1,28121662,185343
OK,138,20,1016,138,2014-10-01T11:10:00,1,28122100,185343
OK,138,20,1016,138,2014-10-01T11:15:00,1,28122549,185343
OK,138,20,1016,138,2014-10-01T11:20:00,0,28122990,185343
OK,107,26,1016,107,2014-10-01T11:25:00,2,28123439,185343
OK,107,26,1016,107,2014-10-01T11:30:00,2,28123871,185343
OK,128,21,1016,128,2014-10-01T11:35:00,0,28124320,185343
OK,141,19,1016,141,2014-10-01T11:40:00,3,28124722,185343
OK,141,19,1016,141,2014-10-01T11:45:00,3,28125171,185343
OK,141,19,1016,141,2014-10-01T11:50:00,0,28125600,185343
OK,136,20,1016,136,2014-10-01T11:55:00,2,28126049,185343
OK,134,20,1016,134,2014-10-01T12:00:00,1,28126401,185343
OK,93,30,1016,93,2014-10-01T12:10:00,3,28127299,185343
OK,93,30,1016,93,2014-10-01T12:15:00,3,28127748,185343
OK,142,19,1016,142,2014-10-01T12:20:00,2,28128176,185343
OK,137,20,1016,137,2014-10-01T12:25:00,3,28128625,185343
OK,108,26,1016,108,2014-10-01T12:30:00,2,28129060,185343
OK,144,19,1016,144,2014-10-01T12:35:00,3,28129509,185343
OK,147,19,1016,147,2014-10-01T12:40:00,2,28129943,185343
OK,144,19,1016,144,2014-10-01T12:45:00,0,28130392,185343
OK,144,19,1016,144,2014-10-01T12:50:00,0,28130820,185343
OK,144,19,1016,144,2014-10-01T12:55:00,0,28131269,185343
OK,144,19,1016,144,2014-10-01T13:00:00,0,28131706,185343
OK,122,23,1016,122,2014-10-01T13:05:00,1,28132155,185343
OK,126,22,1016,126,2014-10-01T13:10:00,2,28132593,185343
OK,98,28,1016,98,2014-10-01T13:15:00,2,28133040,185343
OK,127,22,1016,127,2014-10-01T13:20:00,3,28133478,185343
OK,129,21,1016,129,2014-10-01T13:25:00,3,28133927,185343
OK,206,13,1016,206,2014-10-01T13:30:00,1,28134366,185343
OK,193,14,1016,193,2014-10-01T13:35:00,1,28134815,185343
OK,193,14,1016,193,2014-10-01T13:40:00,1,28135234,185343
OK,193,14,1016,193,2014-10-01T13:45:00,0,28135683,185343
OK,200,14,1016,200,2014-10-01T13:50:00,1,28136120,185343
OK,200,14,1016,200,2014-10-01T13:55:00,1,28136569,185343
OK,200,14,1016,200,2014-10-01T14:00:00,0,28137009,185343
OK,200,14,1016,200,2014-10-01T14:05:00,0,28137458,185343
OK,143,19,1016,143,2014-10-01T14:10:00,3,28137892,185343
OK,109,25,1016,109,2014-10-01T14:15:00,0,28138341,185343
OK,109,25,1016,109,2014-10-01T14:20:00,1,28138769,185343
OK,110,25,1016,110,2014-10-01T14:25:00,1,28139218,185343
OK,110,25,1016,110,2014-10-01T14:30:00,0,28139629,185343
OK,169,16,1016,169,2014-10-01T14:35:00,1,28140078,185343
OK,169,16,1016,169,2014-10-01T14:40:00,1,28140520,185343
OK,169,16,1016,169,2014-10-01T14:45:00,0,28140969,185343
OK,72,39,1016,72,2014-10-01T14:50:00,1,28141395,185343
OK,96,29,1016,96,2014-10-01T14:55:00,2,28141844,185343
OK,126,22,1016,126,2014-10-01T15:00:00,4,28142272,185343
OK,131,21,1016,131,2014-10-01T15:05:00,3,28142721,185343
OK,134,20,1016,134,2014-10-01T15:10:00,0,28143148,185343
OK,164,17,1016,164,2014-10-01T15:15:00,1,28143597,185343
OK,164,17,1016,164,2014-10-01T15:20:00,1,28144045,185343
OK,65,43,1016,65,2014-10-01T15:25:00,1,28144494,185343
OK,65,43,1016,65,2014-10-01T15:30:00,1,28144915,185343
OK,74,37,1016,74,2014-10-01T15:35:00,1,28145329,185343
OK,74,37,1016,74,2014-10-01T15:40:00,1,28145778,185343
OK,74,37,1016,74,2014-10-01T15:45:00,0,28146227,185343
OK,48,58,1016,48,2014-10-01T15:50:00,1,28146676,185343
OK,44,63,1016,44,2014-10-01T15:55:00,2,28147084,185343
OK,40,70,1016,40,2014-10-01T16:00:00,1,28147528,185343
OK,40,70,1016,40,2014-10-01T16:05:00,0,28147977,185343
OK,40,70,1016,40,2014-10-01T16:10:00,0,28148378,185343
OK,40,70,1016,40,2014-10-01T16:20:00,0,28149266,185343
OK,40,70,1016,40,2014-10-01T16:25:00,0,28149715,185343
OK,40,70,1016,40,2014-10-01T16:30:00,0,28150141,185343
OK,40,70,1016,40,2014-10-01T16:35:00,0,28150590,185343
OK,40,70,1016,40,2014-10-01T16:40:00,0,28151008,185343
OK,141,19,1016,141,2014-10-01T16:45:00,2,28151457,185343
OK,144,19,1016,144,2014-10-01T16:50:00,1,28151906,185343
OK,144,19,1016,144,2014-10-01T17:00:00,0,28152355,185343
OK,134,20,1016,134,2014-10-01T17:05:00,1,28152801,185343
OK,134,20,1016,134,2014-10-01T17:10:00,1,28153248,185343
OK,134,20,1016,134,2014-10-01T17:15:00,1,28153697,185343
OK,134,20,1016,134,2014-10-01T17:20:00,1,28154107,185343
OK,134,20,1016,134,2014-10-01T17:25:00,0,28154556,185343
OK,134,20,1016,134,2014-10-01T17:30:00,0,28154998,185343
OK,134,20,1016,134,2014-10-01T17:35:00,0,28155446,185343
OK,134,20,1016,134,2014-10-01T17:40:00,0,28155864,185343
OK,134,20,1016,134,2014-10-01T17:45:00,0,28156313,185343
OK,114,24,1016,114,2014-10-01T17:50:00,1,28156761,185343
OK,130,21,1016,130,2014-10-01T17:55:00,1,28157200,185343
OK,129,21,1016,129,2014-10-01T18:00:00,2,28157630,185343
OK,129,21,1016,129,2014-10-01T18:05:00,1,28158078,185343
OK,129,21,1016,129,2014-10-01T18:10:00,0,28158522,185343
OK,129,21,1016,129,2014-10-01T18:15:00,0,28158968,185343
OK,129,21,1016,129,2014-10-01T18:20:00,0,28159414,185343
OK,129,21,1016,129,2014-10-01T18:25:00,0,28159749,185343
OK,129,21,1016,129,2014-10-01T18:30:00,0,28160198,185343
OK,129,21,1016,129,2014-10-01T18:35:00,0,28160647,185343
OK,129,21,1016,129,2014-10-01T18:40:00,0,28161085,185343
OK,61,46,1016,61,2014-10-01T18:45:00,1,28161534,185343
OK,61,46,1016,61,2014-10-01T18:50:00,1,28161951,185343
OK,61,46,1016,61,2014-10-01T18:55:00,0,28162400,185343
OK,61,46,1016,61,2014-10-01T19:00:00,0,28162794,185343
OK,61,46,1016,61,2014-10-01T19:05:00,0,28163233,185343
OK,61,46,1016,61,2014-10-01T19:10:00,0,28163681,185343
OK,61,46,1016,61,2014-10-01T19:15:00,0,28164130,185343
OK,61,46,1016,61,2014-10-01T19:20:00,0,28164561,185343
OK,61,46,1016,61,2014-10-01T19:25:00,0,28165010,185343
OK,61,46,1016,61,2014-10-01T19:30:00,0,28165435,185343
OK,61,46,1016,61,2014-10-01T19:35:00,0,28165883,185343
OK,61,46,1016,61,2014-10-01T19:40:00,0,28166324,185343
OK,61,46,1016,61,2014-10-01T19:45:00,0,28166686,185343
OK,61,46,1016,61,2014-10-01T19:50:00,0,28167135,185343
OK,142,19,1016,142,2014-10-01T19:55:00,1,28167564,185343
OK,142,19,1016,142,2014-10-01T20:00:00,0,28167997,185343
OK,142,19,1016,142,2014-10-01T20:05:00,0,28168446,185343
OK,142,19,1016,142,2014-10-01T20:10:00,0,28168891,185343
OK,142,19,1016,142,2014-10-01T20:15:00,0,28169340,185343
OK,142,19,1016,142,2014-10-01T20:20:00,0,28169788,185343
OK,51,55,1016,51,2014-10-01T20:25:00,1,28170214,185343
OK,51,55,1016,51,2014-10-01T20:30:00,1,28170659,185343
OK,51,55,1016,51,2014-10-01T20:35:00,0,28171107,185343
OK,51,55,1016,51,2014-10-01T20:40:00,0,28171544,185343
OK,51,55,1016,51,2014-10-01T20:45:00,0,28171990,185343
OK,51,55,1016,51,2014-10-01T20:50:00,0,28172438,185343
OK,51,55,1016,51,2014-10-01T20:55:00,0,28172884,185343
OK,51,55,1016,51,2014-10-01T21:00:00,0,28173330,185343
OK,51,55,1016,51,2014-10-01T21:05:00,0,28173779,185343
OK,51,55,1016,51,2014-10-01T21:10:00,0,28174220,185343
OK,51,55,1016,51,2014-10-01T21:15:00,0,28174669,185343
OK,51,55,1016,51,2014-10-01T21:20:00,0,28175095,185343
OK,51,55,1016,51,2014-10-01T21:25:00,0,28175491,185343
OK,51,55,1016,51,2014-10-01T21:30:00,0,28175940,185343
OK,51,55,1016,51,2014-10-01T21:35:00,0,28176389,185343
OK,51,55,1016,51,2014-10-01T21:40:00,0,28176838,185343
OK,51,55,1016,51,2014-10-01T21:45:00,0,28177194,185343
OK,51,55,1016,51,2014-10-01T21:50:00,0,28177634,185343
OK,51,55,1016,51,2014-10-01T21:55:00,0,28178080,185343
OK,51,55,1016,51,2014-10-01T22:00:00,0,28178529,185343
OK,51,55,1016,51,2014-10-01T22:05:00,0,28178976,185343
OK,51,55,1016,51,2014-10-01T22:10:00,0,28179410,185343
OK,51,55,1016,51,2014-10-01T22:15:00,0,28179853,185343
OK,51,55,1016,51,2014-10-01T22:20:00,0,28180300,185343
OK,51,55,1016,51,2014-10-01T22:25:00,0,28180698,185343
OK,51,55,1016,51,2014-10-01T22:30:00,0,28181147,185343
OK,51,55,1016,51,2014-10-01T22:35:00,0,28181571,185343
OK,96,29,1016,96,2014-10-01T22:40:00,1,28182019,185343
OK,96,29,1016,96,2014-10-01T22:45:00,0,28182466,185343
OK,96,29,1016,96,2014-10-01T22:50:00,0,28182915,185343
OK,96,29,1016,96,2014-10-01T22:55:00,0,28183332,185343
OK,96,29,1016,96,2014-10-01T23:00:00,0,28183765,185343
OK,96,29,1016,96,2014-10-01T23:05:00,0,28184210,185343
OK,96,29,1016,96,2014-10-01T23:10:00,0,28184659,185343
OK,96,29,1016,96,2014-10-01T23:15:00,0,28185094,185343
OK,96,29,1016,96,2014-10-01T23:20:00,0,28185542,185343
OK,96,29,1016,96,2014-10-01T23:25:00,0,28185973,185343
OK,96,29,1016,96,2014-10-01T23:30:00,0,28186365,185343
OK,96,29,1016,96,2014-10-01T23:40:00,0,28187212,185343
OK,96,29,1016,96,2014-10-01T23:55:00,0,28188544,185343
OK,96,29,1016,96,2014-10-02T00:05:00,0,28189429,185343
OK,96,29,1016,96,2014-10-02T00:10:00,0,28189851,185343
OK,96,29,1016,96,2014-10-02T00:15:00,0,28190300,185343
OK,96,29,1016,96,2014-10-02T00:20:00,0,28190653,185343
OK,96,29,1016,96,2014-10-02T00:30:00,0,28191551,185343
OK,96,29,1016,96,2014-10-02T00:35:00,0,28191857,185343
OK,96,29,1016,96,2014-10-02T00:45:00,0,28192739,185343
OK,96,29,1016,96,2014-10-02T00:50:00,0,28193183,185343
OK,96,29,1016,96,2014-10-02T00:55:00,0,28193550,185343
OK,96,29,1016,96,2014-10-02T01:05:00,0,28194448,185343
OK,96,29,1016,96,2014-10-02T01:10:00,0,28194897,185343
OK,96,29,1016,96,2014-10-02T01:15:00,0,28195133,185343
OK,96,29,1016,96,2014-10-02T01:25:00,0,28196031,185343
OK,96,29,1016,96,2014-10-02T01:30:00,0,28196315,185343
OK,96,29,1016,96,2014-10-02T01:35:00,0,28196764,185343
OK,96,29,1016,96,2014-10-02T01:40:00,0,28197187,185343
OK,96,29,1016,96,2014-10-02T01:45:00,0,28197636,185343
OK,96,29,1016,96,2014-10-02T01:50:00,0,28198084,185343
OK,96,29,1016,96,2014-10-02T01:55:00,0,28198532,185343
OK,96,29,1016,96,2014-10-02T02:00:00,0,28198981,185343
OK,96,29,1016,96,2014-10-02T02:05:00,0,28199353,185343
OK,96,29,1016,96,2014-10-02T02:10:00,0,28199795,185343
OK,96,29,1016,96,2014-10-02T02:15:00,0,28200237,185343
OK,96,29,1016,96,2014-10-02T02:20:00,0,28200680,185343
OK,96,29,1016,96,2014-10-02T02:25:00,0,28201129,185343
OK,96,29,1016,96,2014-10-02T02:30:00,0,28201560,185343
OK,96,29,1016,96,2014-10-02T02:45:00,0,28202458,185343
OK,96,29,1016,96,2014-10-02T02:50:00,0,28202900,185343
OK,96,29,1016,96,2014-10-02T02:55:00,0,28203348,185343
OK,96,29,1016,96,2014-10-02T03:00:00,0,28203783,185343
OK,96,29,1016,96,2014-10-02T03:10:00,0,28204232,185343
OK,96,29,1016,96,2014-10-02T03:25:00,0,28204681,185343
OK,96,29,1016,96,2014-10-02T03:30:00,0,28205130,185343
OK,96,29,1016,96,2014-10-02T03:35:00,0,28205558,185343
OK,96,29,1016,96,2014-10-02T03:40:00,0,28206005,185343
OK,96,29,1016,96,2014-10-02T03:45:00,0,28206388,185343
OK,96,29,1016,96,2014-10-02T03:55:00,0,28207286,185343
OK,96,29,1016,96,2014-10-02T04:00:00,0,28207705,185343
OK,96,29,1016,96,2014-10-02T04:05:00,0,28208154,185343
OK,96,29,1016,96,2014-10-02T04:10:00,0,28208581,185343
OK,96,29,1016,96,2014-10-02T04:15:00,0,28209030,185343
OK,96,29,1016,96,2014-10-02T04:20:00,0,28209468,185343
OK,96,29,1016,96,2014-10-02T04:25:00,0,28209917,185343
OK,116,24,1016,116,2014-10-02T04:30:00,3,28210340,185343
OK,72,39,1016,72,2014-10-02T04:35:00,1,28210789,185343
OK,72,39,1016,72,2014-10-02T04:40:00,0,28211214,185343
OK,72,39,1016,72,2014-10-02T04:45:00,0,28211658,185343
OK,72,39,1016,72,2014-10-02T04:50:00,0,28212036,185343
OK,79,35,1016,79,2014-10-02T05:00:00,0,28212914,185343
OK,79,35,1016,79,2014-10-02T05:05:00,0,28213363,185343
OK,79,35,1016,79,2014-10-02T05:10:00,0,28213801,185343
OK,79,35,1016,79,2014-10-02T05:15:00,0,28214250,185343
OK,79,35,1016,79,2014-10-02T05:20:00,0,28214663,185343
OK,145,19,1016,145,2014-10-02T05:25:00,0,28215112,185343
OK,145,19,1016,145,2014-10-02T05:30:00,0,28215528,185343
OK,145,19,1016,145,2014-10-02T05:35:00,0,28215977,185343
OK,93,30,1016,93,2014-10-02T05:40:00,4,28216316,185343
OK,114,24,1016,114,2014-10-02T05:45:00,1,28216756,185343
OK,114,24,1016,114,2014-10-02T05:50:00,0,28217203,185343
OK,85,33,1016,85,2014-10-02T05:55:00,4,28217652,185343
OK,87,32,1016,87,2014-10-02T06:00:00,5,28218091,185343
OK,119,23,1016,119,2014-10-02T06:05:00,1,28218540,185343
OK,119,23,1016,119,2014-10-02T06:10:00,0,28218960,185343
OK,162,17,1016,162,2014-10-02T06:15:00,1,28219409,185343
OK,125,22,1016,125,2014-10-02T06:20:00,2,28219782,185343
OK,87,32,1016,87,2014-10-02T06:30:00,4,28220665,185343
OK,105,26,1016,105,2014-10-02T06:35:00,1,28221114,185343
OK,102,27,1016,102,2014-10-02T06:40:00,4,28221495,185343
OK,99,28,1016,99,2014-10-02T06:45:00,3,28221781,185343
OK,109,25,1016,109,2014-10-02T07:00:00,2,28222375,185343
OK,87,32,1016,87,2014-10-02T07:10:00,1,28223255,185343
OK,87,32,1016,87,2014-10-02T07:15:00,0,28223690,185343
OK,87,32,1016,87,2014-10-02T07:20:00,0,28224138,185343
OK,84,33,1016,84,2014-10-02T07:25:00,1,28224493,185343
OK,84,33,1016,84,2014-10-02T07:30:00,0,28224942,185343
OK,90,31,1016,90,2014-10-02T07:35:00,1,28225391,185343
OK,90,31,1016,90,2014-10-02T07:40:00,1,28225713,185343
OK,90,31,1016,90,2014-10-02T07:50:00,0,28226603,185343
OK,90,31,1016,90,2014-10-02T07:55:00,1,28227052,185343
OK,90,31,1016,90,2014-10-02T08:00:00,1,28227467,185343
OK,90,31,1016,90,2014-10-02T08:05:00,0,28227916,185343
OK,90,31,1016,90,2014-10-02T08:10:00,0,28228275,185343
OK,85,33,1016,85,2014-10-02T08:20:00,0,28229134,185343
OK,82,34,1016,82,2014-10-02T08:25:00,1,28229583,185343
OK,82,34,1016,82,2014-10-02T08:30:00,0,28229933,185343
OK,153,18,1016,153,2014-10-02T08:40:00,0,28230748,185343
OK,153,18,1016,153,2014-10-02T08:45:00,0,28231196,185343
OK,94,29,1016,94,2014-10-02T08:50:00,3,28231620,185343
OK,96,29,1016,96,2014-10-02T08:55:00,0,28232069,185343
OK,104,27,1016,104,2014-10-02T09:00:00,3,28232411,185343
OK,94,29,1016,94,2014-10-02T09:10:00,0,28232860,185343
OK,100,28,1016,100,2014-10-02T09:15:00,3,28233309,185343
OK,109,25,1016,109,2014-10-02T09:20:00,2,28233733,185343
OK,86,32,1016,86,2014-10-02T09:25:00,2,28234182,185343
OK,69,40,1016,69,2014-10-02T09:30:00,0,28234515,185343
OK,69,40,1016,69,2014-10-02T09:40:00,0,28235391,185343
OK,69,40,1016,69,2014-10-02T09:45:00,0,28235840,185343
OK,69,40,1016,69,2014-10-02T09:50:00,0,28236283,185343
OK,99,28,1016,99,2014-10-02T09:55:00,1,28236730,185343
OK,99,28,1016,99,2014-10-02T10:00:00,0,28237133,185343
OK,99,28,1016,99,2014-10-02T10:05:00,0,28237581,185343
OK,157,17,1016,157,2014-10-02T10:10:00,1,28238029,185343
OK,81,34,1016,81,2014-10-02T10:15:00,3,28238476,185343
OK,74,37,1016,74,2014-10-02T10:20:00,1,28238917,185343
OK,74,37,1016,74,2014-10-02T10:25:00,0,28239366,185343
OK,74,37,1016,74,2014-10-02T10:30:00,0,28239796,185343
OK,110,25,1016,110,2014-10-02T10:35:00,1,28240245,185343
OK,110,25,1016,110,2014-10-02T10:40:00,0,28240689,185343
OK,110,25,1016,110,2014-10-02T10:45:00,0,28241138,185343
OK,110,25,1016,110,2014-10-02T10:50:00,0,28241570,185343
OK,80,35,1016,80,2014-10-02T10:55:00,2,28242018,185343
OK,80,35,1016,80,2014-10-02T11:00:00,2,28242414,185343
OK,80,35,1016,80,2014-10-02T11:05:00,0,28242863,185343
OK,80,35,1016,80,2014-10-02T11:10:00,0,28243312,185343
OK,80,35,1016,80,2014-10-02T11:15:00,0,28243637,185343
OK,80,35,1016,80,2014-10-02T11:20:00,0,28244075,185343
OK,80,35,1016,80,2014-10-02T11:25:00,0,28244504,185343
OK,80,35,1016,80,2014-10-02T11:30:00,0,28244953,185343
OK,86,32,1016,86,2014-10-02T11:35:00,1,28245402,185343
OK,86,32,1016,86,2014-10-02T11:40:00,1,28245808,185343
OK,86,32,1016,86,2014-10-02T11:45:00,0,28246257,185343
OK,70,40,1016,70,2014-10-02T11:50:00,1,28246694,185343
OK,84,33,1016,84,2014-10-02T11:55:00,3,28247143,185343
OK,89,31,1016,89,2014-10-02T12:00:00,2,28247589,185343
OK,95,29,1016,95,2014-10-02T12:05:00,0,28248019,185343
OK,95,29,1016,95,2014-10-02T12:10:00,0,28248468,185343
OK,199,14,1016,199,2014-10-02T12:15:00,1,28248915,185343
OK,199,14,1016,199,2014-10-02T12:20:00,1,28249343,185343
OK,69,40,1016,69,2014-10-02T12:25:00,1,28249787,185343
OK,69,40,1016,69,2014-10-02T12:30:00,1,28250206,185343
OK,81,34,1016,81,2014-10-02T12:35:00,1,28250604,185343
OK,179,15,1016,179,2014-10-02T13:20:00,3,28251929,185343
OK,177,15,1016,177,2014-10-02T13:30:00,1,28252513,185343
OK,177,15,1016,177,2014-10-02T13:35:00,1,28252955,185343
OK,177,15,1016,177,2014-10-02T13:40:00,0,28253372,185343
OK,115,24,1016,115,2014-10-02T13:50:00,1,28254226,185343
OK,157,17,1016,157,2014-10-02T13:55:00,3,28254547,185343
OK,178,15,1016,178,2014-10-02T14:10:00,1,28255124,185343
OK,157,17,1016,157,2014-10-02T14:15:00,3,28255573,185343
OK,108,26,1016,108,2014-10-02T14:20:00,2,28256001,185343
OK,157,17,1016,157,2014-10-02T14:25:00,0,28256450,185343
OK,116,24,1016,116,2014-10-02T14:30:00,4,28256878,185343
OK,157,17,1016,157,2014-10-02T14:35:00,3,28257327,185343
OK,114,24,1016,114,2014-10-02T14:40:00,0,28257768,185343
OK,78,36,1016,78,2014-10-02T14:45:00,2,28258216,185343
OK,81,34,1016,81,2014-10-02T14:50:00,3,28258649,185343
OK,81,34,1016,81,2014-10-02T14:55:00,1,28259095,185343
OK,209,13,1016,209,2014-10-02T15:00:00,1,28259544,185343
OK,209,13,1016,209,2014-10-02T15:05:00,1,28259991,185343
OK,69,40,1016,69,2014-10-02T15:10:00,1,28260424,185343
OK,76,36,1016,76,2014-10-02T15:15:00,1,28260873,185343
OK,76,36,1016,76,2014-10-02T15:20:00,0,28261313,185343
OK,76,36,1016,76,2014-10-02T15:25:00,0,28261695,185343
OK,76,36,1016,76,2014-10-02T15:30:00,0,28262125,185343
OK,104,27,1016,104,2014-10-02T15:40:00,0,28263018,185343
OK,87,32,1016,87,2014-10-02T15:45:00,2,28263456,185343
OK,73,38,1016,73,2014-10-02T15:50:00,0,28263897,185343
OK,73,38,1016,73,2014-10-02T15:55:00,0,28264299,185343
OK,88,31,1016,88,2014-10-02T16:00:00,2,28264748,185343
OK,135,20,1016,135,2014-10-02T16:05:00,1,28265186,185343
OK,135,20,1016,135,2014-10-02T16:10:00,0,28265626,185343
OK,135,20,1016,135,2014-10-02T16:15:00,0,28266022,185343
OK,68,41,1016,68,2014-10-02T16:20:00,2,28266471,185343